DW7955 Weather Reports


time (UTC)temp
C
wind
direction
speed
KPH
gust
KPH
rain 1hr
cm
rain 24hr
cm
rain mn
cm
humidity
%
barometer
mb
20260507060018 0 188 0.0 0.0 0.00 0.89 0.86 89 1022.5
20260507054518 0 188 0.0 0.0 0.00 0.89 0.86 88 1022.5
20260507053017 0 188 0.0 0.0 0.00 0.89 0.86 88 1022.5
20260507051517 1 188 0.0 0.0 0.00 0.89 0.86 88 1022.4
20260507050033 1 188 0.0 0.0 0.00 0.89 0.86 88 1022.4
20260507044516 1 188 0.0 0.0 0.00 0.89 0.86 88 1022.3
20260507043015 1 188 0.0 0.0 0.00 0.89 0.86 87 1022.4
20260507041523 1 188 0.0 0.0 0.00 0.89 0.86 85 1022.4
20260507040013 2 188 0.0 0.0 0.00 0.89 0.86 84 1022.3
20260507034512 2 188 0.0 0.0 0.00 0.89 0.86 82 1022.3
20260507033012 2 188 0.0 3.2 0.00 0.89 0.86 82 1022.3
20260507031511 2 188 0.0 4.8 0.00 0.89 0.86 80 1022.2
20260507030020 3 196 3.2 8.0 0.00 0.89 0.86 79 1022.2
20260507024514 3 204 6.4 11.3 0.00 0.89 0.86 78 1022.0
20260507023009 3 194 3.2 8.0 0.00 0.89 0.86 77 1022.0
20260507021509 3 176 0.0 6.4 0.00 0.89 0.86 77 1022.0
20260507020011 4 176 1.6 4.8 0.00 0.89 0.86 76 1022.0
20260507014512 4 176 0.0 3.2 0.00 0.89 0.86 72 1022.0
20260507013012 5 176 0.0 6.4 0.00 0.89 0.86 68 1021.9
20260507011508 5 136 3.2 8.0 0.00 0.89 0.86 68 1021.9
20260507010008 5 176 3.2 9.7 0.00 1.04 0.86 66 1021.8
20260507004506 5 144 4.8 6.4 0.00 1.04 0.86 69 1021.7
20260507003005 5 238 1.6 8.0 0.00 1.04 0.86 67 1021.8
20260507001504 5 234 4.8 9.7 0.00 1.04 0.86 70 1021.9
20260507000003 5 187 3.2 9.7 0.00 1.35 0.86 72 1021.9
20260506234601 5 149 1.6 9.7 0.00 1.35 0.86 78 1021.8
20260506233100 5 164 6.4 11.3 0.00 1.35 0.86 81 1021.8
20260506231609 4 248 4.8 8.0 0.00 1.35 0.86 85 1021.8
20260506230106 3 224 0.0 8.0 0.00 1.35 0.86 87 1021.8
20260506224551 3 234 1.6 4.8 0.00 1.35 0.86 90 1021.9
20260506223050 2 229 0.0 4.8 0.05 1.35 0.86 90 1021.9
20260506221608 2 228 3.2 8.0 0.08 1.35 0.86 91 1022.0
20260506220105 2 200 0.0 4.8 0.08 1.35 0.86 92 1022.0
20260506214550 1 92 1.6 8.0 0.08 1.35 0.86 91 1021.9
20260506213103 1 140 4.8 8.0 0.03 1.30 0.81 89 1022.0
20260506211546 2 34 11.3 19.3 0.00 1.27 0.79 83 1021.9
20260506210054 3 133 4.8 9.7 0.00 1.27 0.79 83 1021.5
20260506204543 3 113 1.6 11.3 0.00 1.27 0.79 87 1021.4
20260506203041 2 96 6.4 14.5 0.00 1.27 0.79 88 1021.6
20260506201546 2 87 6.4 12.9 0.03 1.27 0.79 91 1021.7
20260506200040 1 26 1.6 9.7 0.10 1.27 0.79 92 1021.6
20260506194540 1 90 3.2 9.7 0.15 1.27 0.79 94 1021.5
20260506193039 1 79 3.2 6.4 0.15 1.27 0.79 94 1021.8
20260506191538 0 26 1.6 12.9 0.18 1.24 0.76 94 1021.9
20260506190039 0 1 0.0 6.4 0.13 1.17 0.69 93 1021.6
20260506184541 0 1 3.2 8.0 0.10 1.12 0.64 93 1021.4
20260506183036 0 15 3.2 8.0 0.13 1.12 0.64 93 1021.7
20260506181537 0 30 1.6 4.8 0.08 1.07 0.58 93 1021.5
20260506180039 0 42 0.0 4.8 0.08 1.04 0.56 93 1021.4
20260506174536 0 45 3.2 8.0 0.05 1.02 0.53 93 1021.2
20260506173036 0 32 0.0 6.4 0.05 0.99 0.51 93 1021.5
20260506171539 0 27 9.7 19.3 0.10 0.99 0.51 93 1021.1
20260506170027 0 46 16.1 24.1 0.10 0.97 0.48 93 1020.6
20260506164525 0 50 11.3 20.9 0.18 0.97 0.48 93 1020.4
20260506163023 0 33 12.9 24.1 0.18 0.94 0.46 93 1019.8
20260506161521 0 29 12.9 22.5 0.13 0.89 0.41 93 1019.6
20260506160021 0 29 14.5 20.9 0.08 0.84 0.36 93 1019.7
20260506154520 0 15 9.7 17.7 0.03 0.79 0.30 94 1019.5
20260506153017 0 19 4.8 12.9 0.00 0.76 0.28 94 1019.2
20260506151523 0 7 6.4 11.3 0.00 0.76 0.28 94 1019.1
20260506150016 0 356 8.0 12.9 0.00 0.76 0.28 93 1019.3
20260506144513 0 356 6.4 11.3 0.00 0.76 0.28 93 1019.2
20260506143012 0 356 8.0 17.7 0.03 0.76 0.28 93 1018.9
20260506141511 0 5 4.8 16.1 0.03 0.76 0.28 93 1018.9
20260506140017 0 20 6.4 14.5 0.03 0.76 0.28 93 1019.0
20260506134506 0 6 9.7 19.3 0.03 0.76 0.28 93 1018.5
20260506133004 0 42 9.7 16.1 0.00 0.71 0.25 93 1018.3
20260506131506 0 356 8.0 17.7 0.00 0.71 0.25 93 1018.1
20260506124556 0 26 14.5 20.9 0.00 0.71 0.25 92 1017.5
20260506123054 0 16 12.9 22.5 0.00 0.71 0.25 92 1017.1
20260506121556 0 35 12.9 22.5 0.00 0.71 0.25 91 1016.7
20260506120052 0 30 12.9 24.1 0.00 0.71 0.25 91 1016.4
20260506114552 0 36 16.1 27.4 0.00 0.71 0.25 90 1016.4
20260506113043 0 23 20.9 33.8 0.00 0.71 0.25 90 1016.0
20260506111539 0 30 22.5 37.0 0.00 0.71 0.25 90 1015.6
20260506110037 1 28 17.7 37.0 0.00 0.71 0.25 90 1015.4
20260506104537 1 1 19.3 33.8 0.00 0.71 0.25 89 1015.3
20260506103033 1 356 19.3 29.0 0.00 0.71 0.25 88 1015.3
20260506101530 1 32 17.7 24.1 0.00 0.71 0.25 88 1015.2
20260506100027 1 55 14.5 27.4 0.00 0.71 0.25 89 1015.0
20260506094525 1 38 14.5 22.5 0.00 0.71 0.25 91 1014.9
20260506093022 1 17 8.0 17.7 0.03 0.71 0.25 93 1014.8
20260506091522 1 17 11.3 17.7 0.03 0.71 0.25 93 1014.8
20260506090019 1 43 9.7 17.7 0.05 0.71 0.25 93 1014.7
20260506084518 1 32 11.3 19.3 0.10 0.71 0.25 92 1014.6
20260506083018 1 40 8.0 17.7 0.13 0.71 0.23 92 1014.7
20260506081514 1 32 12.9 19.3 0.15 0.71 0.23 92 1014.4
20260506073004 2 66 3.2 8.0 0.10 0.58 0.10 93 1014.2
20260506071501 2 85 4.8 8.0 0.08 0.56 0.08 92 1014.1
20260506070104 2 47 4.8 11.3 0.05 0.53 0.05 92 1014.0
20260506061555 2 43 3.2 8.0 0.03 0.48 0.00 92 1013.6